Weather in Roshal'

Russia / Moscow Oblast     55°39′47″N   39°51′45″E
temp.,
°C
wind,
m/s
gust,
m/s
humid.,
%
clouds,
%
prec.,
mm/h
press.,
hPa
HPBL,
m
1 august, sun
sun100:00+16wsw257157 0.0 100986
03:00+14wsw247870 0.0 101060
06:00+16sw2377100 0.0 101195
09:00+22sw245298 0.0 1012540
12:00+26sw353842 0.0 10111490
15:00+28sw453790 0.0 10111814
18:00+19nw488898 2.1 1011237
21:00+18se249390 3.9 101071
2 august, mon
mon200:00+17ssw229397 0.5 101024
03:00+18wsw129278 0.5 101020
06:00+19sw1291100 0.1 101050
09:00+23s247379 0.4 1010378
12:00+29s474397 0.0 10081497
15:00+30ssw594384 0.0 10071541
18:00+29sse5946100 0.0 1004669
21:00+20sse411867 0.9 1004196
3 august, tue
tue300:00+19sse41085100 0.0 1003186
03:00+20ssw279257 0.9 1003199
06:00+18sw4109397 0.0 1004459
09:00+21sw4674100 0.0 1004636
12:00+20wsw4781100 0.2 1006821
15:00+20w578144 1.0 1007883
18:00+20wnw467570 0.4 1009981
21:00+15w239214 0.4 101050
4 august, wed
wed400:00+14wsw25925 0.0 101199
03:00+13w27975 0.0 1012155
06:00+14wnw248930 0.0 1013132
09:00+20wnw23540 0.0 1014666
12:00+24wnw343974 0.0 10142315
15:00+23wnw344398 0.0 10151675
18:00+19wsw1266100 0.0 101652
21:00+16n1285100 0.1 101715
5 august, thu
thu500:00+14nne228197 0.1 101717
03:00+12nne11835 0.1 101811
06:00+13ene238042 0.0 101986
09:00+20e234970 0.0 1019626
12:00+24ese2239100 0.0 10181770
15:00+24se124587 0.0 10171588
18:00+23ene1154100 0.0 101639
21:00+17e2477100 0.4 101768